Year,Month,Day,Hour,Minute,Value (Times are PST for temperature in C)
2018,05,23,00,00,17.40
2018,05,23,00,01,17.30
2018,05,23,00,02,17.20
2018,05,23,00,03,17.20
2018,05,23,00,04,17.20
2018,05,23,00,05,17.10
2018,05,23,00,06,17.10
2018,05,23,00,07,17.00
2018,05,23,00,08,16.90
2018,05,23,00,09,16.80
2018,05,23,00,10,16.80
2018,05,23,00,11,16.70
2018,05,23,00,12,16.70
2018,05,23,00,13,16.60
2018,05,23,00,14,16.60
2018,05,23,00,15,16.60
2018,05,23,00,16,16.60
2018,05,23,00,17,16.50
2018,05,23,00,18,16.50
2018,05,23,00,19,16.40
2018,05,23,00,20,16.40
2018,05,23,00,21,16.40
2018,05,23,00,22,16.40
2018,05,23,00,23,16.30
2018,05,23,00,24,16.30
2018,05,23,00,25,16.30
2018,05,23,00,26,16.30
2018,05,23,00,27,16.20
2018,05,23,00,28,16.20
2018,05,23,00,29,16.20
2018,05,23,00,30,16.20
2018,05,23,00,31,16.10
2018,05,23,00,32,16.10
2018,05,23,00,33,16.10
2018,05,23,00,34,16.10
2018,05,23,00,35,16.10
2018,05,23,00,36,16.00
2018,05,23,00,37,16.00
2018,05,23,00,38,16.00
2018,05,23,00,39,15.90
2018,05,23,00,40,15.90
2018,05,23,00,41,15.90
2018,05,23,00,42,15.80
2018,05,23,00,43,15.80
2018,05,23,00,44,15.80
2018,05,23,00,45,15.80
2018,05,23,00,46,15.80
2018,05,23,00,47,15.80
2018,05,23,00,48,15.80
2018,05,23,00,49,15.70
2018,05,23,00,50,15.70
2018,05,23,00,51,15.60
2018,05,23,00,52,15.60
2018,05,23,00,53,15.50
2018,05,23,00,54,15.40
2018,05,23,00,55,15.40
2018,05,23,00,56,15.40
2018,05,23,00,57,15.40
2018,05,23,00,58,15.40
2018,05,23,00,59,15.50
2018,05,23,01,00,15.60
2018,05,23,01,01,15.70
2018,05,23,01,02,15.80
2018,05,23,01,03,15.80
2018,05,23,01,04,15.90
2018,05,23,01,05,15.90
2018,05,23,01,06,15.90
2018,05,23,01,07,15.90
2018,05,23,01,08,15.90
2018,05,23,01,09,16.00
2018,05,23,01,10,16.00
2018,05,23,01,11,16.10
2018,05,23,01,12,16.10
2018,05,23,01,13,16.20
2018,05,23,01,14,16.20
2018,05,23,01,15,16.30
2018,05,23,01,16,16.30
2018,05,23,01,17,16.30
2018,05,23,01,18,16.40
2018,05,23,01,19,16.40
2018,05,23,01,20,16.40
2018,05,23,01,21,16.40
2018,05,23,01,22,16.40
2018,05,23,01,23,16.40
2018,05,23,01,24,16.50
2018,05,23,01,25,16.50
2018,05,23,01,26,16.50
2018,05,23,01,27,16.50
2018,05,23,01,28,16.50
2018,05,23,01,29,16.50
2018,05,23,01,30,16.50
2018,05,23,01,31,16.40
2018,05,23,01,32,16.40
2018,05,23,01,33,16.40
2018,05,23,01,34,16.40
2018,05,23,01,35,16.40
2018,05,23,01,36,16.40
2018,05,23,01,37,16.40
2018,05,23,01,38,16.40
2018,05,23,01,39,16.30
2018,05,23,01,40,16.30
2018,05,23,01,41,16.30
2018,05,23,01,42,16.30
2018,05,23,01,43,16.20
2018,05,23,01,44,16.20
2018,05,23,01,45,16.20
2018,05,23,01,46,16.10
2018,05,23,01,47,16.10
2018,05,23,01,48,16.10
2018,05,23,01,49,16.10
2018,05,23,01,50,16.00
2018,05,23,01,51,16.00
2018,05,23,01,52,16.00
2018,05,23,01,53,16.00
2018,05,23,01,54,16.00
2018,05,23,01,55,16.00
2018,05,23,01,56,16.00
2018,05,23,01,57,16.10
2018,05,23,01,58,16.10
2018,05,23,01,59,16.10
2018,05,23,02,00,16.10
2018,05,23,02,01,16.10
2018,05,23,02,02,16.20
2018,05,23,02,03,16.20
2018,05,23,02,04,16.20
2018,05,23,02,05,16.20
2018,05,23,02,06,16.30
2018,05,23,02,07,16.30
2018,05,23,02,08,16.30
2018,05,23,02,09,16.30
2018,05,23,02,10,16.30
2018,05,23,02,11,16.40
2018,05,23,02,12,16.40
2018,05,23,02,13,16.40
2018,05,23,02,14,16.40
2018,05,23,02,15,16.40
2018,05,23,02,16,16.40
2018,05,23,02,17,16.30
2018,05,23,02,18,16.30
2018,05,23,02,19,16.20
2018,05,23,02,20,16.20
2018,05,23,02,21,16.20
2018,05,23,02,22,16.20
2018,05,23,02,23,16.10
2018,05,23,02,24,16.10
2018,05,23,02,25,16.10
2018,05,23,02,26,16.00
2018,05,23,02,27,16.00
2018,05,23,02,28,15.90
2018,05,23,02,29,15.90
2018,05,23,02,30,15.80
2018,05,23,02,31,15.80
2018,05,23,02,32,15.80
2018,05,23,02,33,15.70
2018,05,23,02,34,15.70
2018,05,23,02,35,15.70
2018,05,23,02,36,15.60
2018,05,23,02,37,15.60
2018,05,23,02,38,15.60
2018,05,23,02,39,15.60
2018,05,23,02,40,15.50
2018,05,23,02,41,15.50
2018,05,23,02,42,15.50
2018,05,23,02,43,15.40
2018,05,23,02,44,15.40
2018,05,23,02,45,15.30
2018,05,23,02,46,15.30
2018,05,23,02,47,15.30
2018,05,23,02,48,15.30
2018,05,23,02,49,15.30
2018,05,23,02,50,15.30
2018,05,23,02,51,15.30
2018,05,23,02,52,15.30
2018,05,23,02,53,15.40
2018,05,23,02,54,15.50
2018,05,23,02,55,15.60
2018,05,23,02,56,15.70
2018,05,23,02,57,15.80
2018,05,23,02,58,15.90
2018,05,23,02,59,16.00
2018,05,23,03,00,16.10
2018,05,23,03,01,16.10
2018,05,23,03,02,16.20
2018,05,23,03,03,16.20
2018,05,23,03,04,16.30
2018,05,23,03,05,16.30
2018,05,23,03,06,16.30
2018,05,23,03,07,16.30
2018,05,23,03,08,16.20
2018,05,23,03,09,16.20
2018,05,23,03,10,16.20
2018,05,23,03,11,16.10
2018,05,23,03,12,16.10
2018,05,23,03,13,16.00
2018,05,23,03,14,16.00
2018,05,23,03,15,15.90
2018,05,23,03,16,15.90
2018,05,23,03,17,15.80
2018,05,23,03,18,15.80
2018,05,23,03,19,15.80
2018,05,23,03,20,15.70
2018,05,23,03,21,15.70
2018,05,23,03,22,15.70
2018,05,23,03,23,15.60
2018,05,23,03,24,15.60
2018,05,23,03,25,15.60
2018,05,23,03,26,15.60
2018,05,23,03,27,15.50
2018,05,23,03,28,15.50
2018,05,23,03,29,15.50
2018,05,23,03,30,15.50
2018,05,23,03,31,15.60
2018,05,23,03,32,15.60
2018,05,23,03,33,15.50
2018,05,23,03,34,15.50
2018,05,23,03,35,15.50
2018,05,23,03,36,15.50
2018,05,23,03,37,15.50
2018,05,23,03,38,15.60
2018,05,23,03,39,15.60
2018,05,23,03,40,15.60
2018,05,23,03,41,15.60
2018,05,23,03,42,15.60
2018,05,23,03,43,15.60
2018,05,23,03,44,15.60
2018,05,23,03,45,15.60
2018,05,23,03,46,15.60
2018,05,23,03,47,15.60
2018,05,23,03,48,15.70
2018,05,23,03,49,15.70
2018,05,23,03,50,15.80
2018,05,23,03,51,15.80
2018,05,23,03,52,15.90
2018,05,23,03,53,15.90
2018,05,23,03,54,15.90
2018,05,23,03,55,15.90
2018,05,23,03,56,15.90
2018,05,23,03,57,15.90
2018,05,23,03,58,15.90
2018,05,23,03,59,15.90
2018,05,23,04,00,15.90
2018,05,23,04,01,15.90
2018,05,23,04,02,15.90
2018,05,23,04,03,15.90
2018,05,23,04,04,16.00
2018,05,23,04,05,16.00
2018,05,23,04,06,16.00
2018,05,23,04,07,16.00
2018,05,23,04,08,16.00
2018,05,23,04,09,16.10
2018,05,23,04,10,16.10
2018,05,23,04,11,16.10
2018,05,23,04,12,16.10
2018,05,23,04,13,16.10
2018,05,23,04,14,16.10
2018,05,23,04,15,16.10
2018,05,23,04,16,16.10
2018,05,23,04,17,16.10
2018,05,23,04,18,16.10
2018,05,23,04,19,16.10
2018,05,23,04,20,16.00
2018,05,23,04,21,16.00
2018,05,23,04,22,16.00
2018,05,23,04,23,16.00
2018,05,23,04,24,16.00
2018,05,23,04,25,15.90
2018,05,23,04,26,15.90
2018,05,23,04,27,15.90
2018,05,23,04,28,15.90
2018,05,23,04,29,15.90
2018,05,23,04,30,15.90
2018,05,23,04,31,15.90
2018,05,23,04,32,15.90
2018,05,23,04,33,15.80
2018,05,23,04,34,15.80
2018,05,23,04,35,15.80
2018,05,23,04,36,15.80
2018,05,23,04,37,15.80
2018,05,23,04,38,15.80
2018,05,23,04,39,15.80
2018,05,23,04,40,15.70
2018,05,23,04,41,15.70
2018,05,23,04,42,15.70
2018,05,23,04,43,15.70
2018,05,23,04,44,15.70
2018,05,23,04,45,15.70
2018,05,23,04,46,15.70
2018,05,23,04,47,15.70
2018,05,23,04,48,15.70
2018,05,23,04,49,15.70
2018,05,23,04,50,15.70
2018,05,23,04,51,15.70
2018,05,23,04,52,15.70
2018,05,23,04,53,15.70
2018,05,23,04,54,15.70
2018,05,23,04,55,15.70
2018,05,23,04,56,15.70
2018,05,23,04,57,15.70
2018,05,23,04,58,15.70
2018,05,23,04,59,15.70
2018,05,23,05,00,15.70
2018,05,23,05,01,15.80
2018,05,23,05,02,15.80
2018,05,23,05,03,15.80
2018,05,23,05,04,15.80
2018,05,23,05,05,15.80
2018,05,23,05,06,15.80
2018,05,23,05,07,15.80
2018,05,23,05,08,15.80
2018,05,23,05,09,15.80
2018,05,23,05,10,15.80
2018,05,23,05,11,15.80
2018,05,23,05,12,15.80
2018,05,23,05,13,15.70
2018,05,23,05,14,15.70
2018,05,23,05,15,15.70
2018,05,23,05,16,15.70
2018,05,23,05,17,15.70
2018,05,23,05,18,15.70
2018,05,23,05,19,15.70
2018,05,23,05,20,15.70
2018,05,23,05,21,15.70
2018,05,23,05,22,15.70
2018,05,23,05,23,15.70
2018,05,23,05,24,15.70
2018,05,23,05,25,15.70
2018,05,23,05,26,15.70
2018,05,23,05,27,15.70
2018,05,23,05,28,15.70
2018,05,23,05,29,15.70
2018,05,23,05,30,15.70
2018,05,23,05,31,15.60
2018,05,23,05,32,15.60
2018,05,23,05,33,15.60
2018,05,23,05,34,15.60
2018,05,23,05,35,15.60
2018,05,23,05,36,15.50
2018,05,23,05,37,15.50
2018,05,23,05,38,15.50
2018,05,23,05,39,15.40
2018,05,23,05,40,15.40
2018,05,23,05,41,15.40
2018,05,23,05,42,15.40
2018,05,23,05,43,15.40
2018,05,23,05,44,15.40
2018,05,23,05,45,15.40
2018,05,23,05,46,15.40
2018,05,23,05,47,15.40
2018,05,23,05,48,15.40
2018,05,23,05,49,15.40
2018,05,23,05,50,15.40
2018,05,23,05,51,15.40
2018,05,23,05,52,15.40
2018,05,23,05,53,15.40
2018,05,23,05,54,15.40
2018,05,23,05,55,15.40
2018,05,23,05,56,15.40
2018,05,23,05,57,15.40
2018,05,23,05,58,15.50
2018,05,23,05,59,15.50
2018,05,23,06,00,15.50
2018,05,23,06,01,15.60
2018,05,23,06,02,15.60
2018,05,23,06,03,15.60
2018,05,23,06,04,15.60
2018,05,23,06,05,15.60
2018,05,23,06,06,15.60
2018,05,23,06,07,15.60
2018,05,23,06,08,15.60
2018,05,23,06,09,15.60
2018,05,23,06,10,15.60
2018,05,23,06,11,15.60
2018,05,23,06,12,15.60
2018,05,23,06,13,15.60
2018,05,23,06,14,15.60
2018,05,23,06,15,15.60
2018,05,23,06,16,15.60
2018,05,23,06,17,15.60
2018,05,23,06,18,15.60
2018,05,23,06,19,15.60
2018,05,23,06,20,15.60
2018,05,23,06,21,15.70
2018,05,23,06,22,15.70
2018,05,23,06,23,15.70
2018,05,23,06,24,15.70
2018,05,23,06,25,15.70
2018,05,23,06,26,15.70
2018,05,23,06,27,15.70
2018,05,23,06,28,15.70
2018,05,23,06,29,15.70
2018,05,23,06,30,15.70
2018,05,23,06,31,15.70
2018,05,23,06,32,15.70
2018,05,23,06,33,15.70
2018,05,23,06,34,15.70
2018,05,23,06,35,15.70
2018,05,23,06,36,15.70
2018,05,23,06,37,15.70
2018,05,23,06,38,15.70
2018,05,23,06,39,15.70
2018,05,23,06,40,15.80
2018,05,23,06,41,15.80
2018,05,23,06,42,15.80
2018,05,23,06,43,15.80
2018,05,23,06,44,15.80
2018,05,23,06,45,15.80
2018,05,23,06,46,15.80
2018,05,23,06,47,15.80
2018,05,23,06,48,15.80
2018,05,23,06,49,15.90
2018,05,23,06,50,15.90
2018,05,23,06,51,15.90
2018,05,23,06,52,15.90
2018,05,23,06,53,16.00
2018,05,23,06,54,16.00
2018,05,23,06,55,16.00
2018,05,23,06,56,16.10
2018,05,23,06,57,16.10
2018,05,23,06,58,16.10
2018,05,23,06,59,16.10
2018,05,23,07,00,16.10
2018,05,23,07,01,16.20
2018,05,23,07,02,16.20
2018,05,23,07,03,16.20
2018,05,23,07,04,16.20
2018,05,23,07,05,16.20
2018,05,23,07,06,16.20
2018,05,23,07,07,16.20
2018,05,23,07,08,16.20
2018,05,23,07,09,16.20
2018,05,23,07,10,16.20
2018,05,23,07,11,16.20
2018,05,23,07,12,16.20
2018,05,23,07,13,16.30
2018,05,23,07,14,16.30
2018,05,23,07,15,16.30
2018,05,23,07,16,16.30
2018,05,23,07,17,16.30
2018,05,23,07,18,16.40
2018,05,23,07,19,16.40
2018,05,23,07,20,16.40
2018,05,23,07,21,16.50
2018,05,23,07,22,16.50
2018,05,23,07,23,16.60
2018,05,23,07,24,16.60
2018,05,23,07,25,16.70
2018,05,23,07,26,16.70
2018,05,23,07,27,16.80
2018,05,23,07,28,16.80
2018,05,23,07,29,16.80
2018,05,23,07,30,16.90
2018,05,23,07,31,16.90
2018,05,23,07,32,17.00
2018,05,23,07,33,17.00
2018,05,23,07,34,17.10
2018,05,23,07,35,17.10
2018,05,23,07,36,17.20
2018,05,23,07,37,17.20
2018,05,23,07,38,17.30
2018,05,23,07,39,17.30
2018,05,23,07,40,17.30
2018,05,23,07,41,17.30
2018,05,23,07,42,17.30
2018,05,23,07,43,17.30
2018,05,23,07,44,17.30
2018,05,23,07,45,17.40
2018,05,23,07,46,17.40
2018,05,23,07,47,17.40
2018,05,23,07,48,17.40
2018,05,23,07,49,17.40
2018,05,23,07,50,17.40
2018,05,23,07,51,17.30
2018,05,23,07,52,17.30
2018,05,23,07,53,17.30
2018,05,23,07,54,17.30
2018,05,23,07,55,17.30
2018,05,23,07,56,17.30
2018,05,23,07,57,17.30
2018,05,23,07,58,17.40
2018,05,23,07,59,17.50
2018,05,23,08,00,17.50
2018,05,23,08,01,17.50
2018,05,23,08,02,17.50
2018,05,23,08,03,17.50
2018,05,23,08,04,17.60
2018,05,23,08,05,17.60
2018,05,23,08,06,17.60
2018,05,23,08,07,17.60
2018,05,23,08,08,17.60
2018,05,23,08,09,17.60
2018,05,23,08,10,17.60
2018,05,23,08,11,17.50
2018,05,23,08,12,17.50
2018,05,23,08,13,17.50
2018,05,23,08,14,17.50
2018,05,23,08,15,17.50
2018,05,23,08,16,17.60
2018,05,23,08,17,17.70
2018,05,23,08,18,17.70
2018,05,23,08,19,17.80
2018,05,23,08,20,17.80
2018,05,23,08,21,17.80
2018,05,23,08,22,17.80
2018,05,23,08,23,17.90
2018,05,23,08,24,17.90
2018,05,23,08,25,17.90
2018,05,23,08,26,17.90
2018,05,23,08,27,17.90
2018,05,23,08,28,18.00
2018,05,23,08,29,18.00
2018,05,23,08,30,18.00
2018,05,23,08,31,17.90
2018,05,23,08,32,17.80
2018,05,23,08,33,17.80
2018,05,23,08,34,17.80
2018,05,23,08,35,17.90
2018,05,23,08,36,17.90
2018,05,23,08,37,17.90
2018,05,23,08,38,17.90
2018,05,23,08,39,18.00
2018,05,23,08,40,18.00
2018,05,23,08,41,18.00
2018,05,23,08,42,18.10
2018,05,23,08,43,18.10
2018,05,23,08,44,18.10
2018,05,23,08,45,18.20
2018,05,23,08,46,18.20
2018,05,23,08,47,18.30
2018,05,23,08,48,18.30
2018,05,23,08,49,18.30
2018,05,23,08,50,18.30
2018,05,23,08,51,18.30
2018,05,23,08,52,18.40
2018,05,23,08,53,18.50
2018,05,23,08,54,18.50
2018,05,23,08,55,18.60
2018,05,23,08,56,18.60
2018,05,23,08,57,18.60
2018,05,23,08,58,18.50
2018,05,23,08,59,18.50
2018,05,23,09,00,18.50
2018,05,23,09,01,18.40
2018,05,23,09,02,18.40
2018,05,23,09,03,18.40
2018,05,23,09,04,18.40
2018,05,23,09,05,18.40
2018,05,23,09,06,18.50
2018,05,23,09,07,18.50
2018,05,23,09,08,18.60
2018,05,23,09,09,18.60
2018,05,23,09,10,18.60
2018,05,23,09,11,18.70
2018,05,23,09,12,18.70
2018,05,23,09,13,18.80
2018,05,23,09,14,18.80
2018,05,23,09,15,18.80
2018,05,23,09,16,18.80
2018,05,23,09,17,18.80
2018,05,23,09,18,18.80
2018,05,23,09,19,18.80
2018,05,23,09,20,18.70
2018,05,23,09,21,18.60
2018,05,23,09,22,18.50
2018,05,23,09,23,18.50
2018,05,23,09,24,18.40
2018,05,23,09,25,18.40
2018,05,23,09,26,18.40
2018,05,23,09,27,18.40
2018,05,23,09,28,18.40
2018,05,23,09,29,18.40
2018,05,23,09,30,18.40
2018,05,23,09,31,18.40
2018,05,23,09,32,18.30
2018,05,23,09,33,18.30
2018,05,23,09,34,18.40
2018,05,23,09,35,18.40
2018,05,23,09,36,18.40
2018,05,23,09,37,18.40
2018,05,23,09,38,18.40
2018,05,23,09,39,18.40
2018,05,23,09,40,18.40
2018,05,23,09,41,18.40
2018,05,23,09,42,18.30
2018,05,23,09,43,18.30
2018,05,23,09,44,18.30
2018,05,23,09,45,18.30
2018,05,23,09,46,18.30
2018,05,23,09,47,18.30
2018,05,23,09,48,18.30
2018,05,23,09,49,18.40
2018,05,23,09,50,18.40
2018,05,23,09,51,18.40
2018,05,23,09,52,18.40
2018,05,23,09,53,18.40
2018,05,23,09,54,18.40
2018,05,23,09,55,18.30
2018,05,23,09,56,18.40
2018,05,23,09,57,18.40
2018,05,23,09,58,18.50
2018,05,23,09,59,18.50
2018,05,23,10,00,18.60
2018,05,23,10,01,18.70
2018,05,23,10,02,18.80
2018,05,23,10,03,18.90
2018,05,23,10,04,18.90
2018,05,23,10,05,18.90
2018,05,23,10,06,19.00
2018,05,23,10,07,19.10
2018,05,23,10,08,19.10
2018,05,23,10,09,19.20
2018,05,23,10,10,19.20
2018,05,23,10,11,19.10
2018,05,23,10,12,19.10
2018,05,23,10,13,19.00
2018,05,23,10,14,19.00
2018,05,23,10,15,19.00
2018,05,23,10,16,18.90
2018,05,23,10,17,18.80
2018,05,23,10,18,18.80
2018,05,23,10,19,18.70
2018,05,23,10,20,18.60
2018,05,23,10,21,18.60
2018,05,23,10,22,18.70
2018,05,23,10,23,18.80
2018,05,23,10,24,19.00
2018,05,23,10,25,19.00
2018,05,23,10,26,19.00
2018,05,23,10,27,19.00
2018,05,23,10,28,19.00
2018,05,23,10,29,18.90
2018,05,23,10,30,18.90
2018,05,23,10,31,18.90
2018,05,23,10,32,18.90
2018,05,23,10,33,18.90
2018,05,23,10,34,19.00
2018,05,23,10,35,19.10
2018,05,23,10,36,19.20
2018,05,23,10,37,19.20
2018,05,23,10,38,19.20
2018,05,23,10,39,19.10
2018,05,23,10,40,19.10
2018,05,23,10,41,19.10
2018,05,23,10,42,19.10
2018,05,23,10,43,19.10
2018,05,23,10,44,19.10
2018,05,23,10,45,19.20
2018,05,23,10,46,19.20
2018,05,23,10,47,19.20
2018,05,23,10,48,19.30
2018,05,23,10,49,19.30
2018,05,23,10,50,19.30
2018,05,23,10,51,19.40
2018,05,23,10,52,19.40
2018,05,23,10,53,19.30
2018,05,23,10,54,19.30
2018,05,23,10,55,19.40
2018,05,23,10,56,19.40
2018,05,23,10,57,19.40
2018,05,23,10,58,19.50
2018,05,23,10,59,19.70
2018,05,23,11,00,19.80
2018,05,23,11,01,19.90
2018,05,23,11,02,19.90
2018,05,23,11,03,20.00
2018,05,23,11,04,20.10
2018,05,23,11,05,20.10
2018,05,23,11,06,20.10
2018,05,23,11,07,20.20
2018,05,23,11,08,20.10
2018,05,23,11,09,20.10
2018,05,23,11,10,20.10
2018,05,23,11,11,20.00
2018,05,23,11,12,20.00
2018,05,23,11,13,19.90
2018,05,23,11,14,19.90
2018,05,23,11,15,19.90
2018,05,23,11,16,19.90
2018,05,23,11,17,19.90
2018,05,23,11,18,19.90
2018,05,23,11,19,19.90
2018,05,23,11,20,19.90
2018,05,23,11,21,19.90
2018,05,23,11,22,20.00
2018,05,23,11,23,20.10
2018,05,23,11,24,20.10
2018,05,23,11,25,20.10
2018,05,23,11,26,20.20
2018,05,23,11,27,20.30
2018,05,23,11,28,20.30
2018,05,23,11,29,20.50
2018,05,23,11,30,20.50
2018,05,23,11,31,20.50
2018,05,23,11,32,20.50
2018,05,23,11,33,20.40
2018,05,23,11,34,20.30
2018,05,23,11,35,20.20
2018,05,23,11,36,20.10
2018,05,23,11,37,20.00
2018,05,23,11,38,19.90
2018,05,23,11,39,19.90
2018,05,23,11,40,19.80
2018,05,23,11,41,19.90
2018,05,23,11,42,20.00
2018,05,23,11,43,20.10
2018,05,23,11,44,20.10
2018,05,23,11,45,20.20
2018,05,23,11,46,20.10
2018,05,23,11,47,20.10
2018,05,23,11,48,20.10
2018,05,23,11,49,20.10
2018,05,23,11,50,20.10
2018,05,23,11,51,20.10
2018,05,23,11,52,20.10
2018,05,23,11,53,20.10
2018,05,23,11,54,20.20
2018,05,23,11,55,20.20
2018,05,23,11,56,20.30
2018,05,23,11,57,20.20
2018,05,23,11,58,20.20
2018,05,23,11,59,20.10
2018,05,23,12,00,20.10
2018,05,23,12,01,20.00
2018,05,23,12,02,19.90
2018,05,23,12,03,19.90
2018,05,23,12,04,19.80
2018,05,23,12,05,19.70
2018,05,23,12,06,19.70
2018,05,23,12,07,19.70
2018,05,23,12,08,19.80
2018,05,23,12,09,19.80
2018,05,23,12,10,19.90
2018,05,23,12,11,19.90
2018,05,23,12,12,20.00
2018,05,23,12,13,20.10
2018,05,23,12,14,20.20
2018,05,23,12,15,20.20
2018,05,23,12,16,20.30
2018,05,23,12,17,20.30
2018,05,23,12,18,20.30
2018,05,23,12,19,20.40
2018,05,23,12,20,20.50
2018,05,23,12,21,20.60
2018,05,23,12,22,20.60
2018,05,23,12,23,20.50
2018,05,23,12,24,20.50
2018,05,23,12,25,20.60
2018,05,23,12,26,20.60
2018,05,23,12,27,20.60
2018,05,23,12,28,20.60
2018,05,23,12,29,20.70
2018,05,23,12,30,20.70
2018,05,23,12,31,20.70
2018,05,23,12,32,20.80
2018,05,23,12,33,20.80
2018,05,23,12,34,20.90
2018,05,23,12,35,21.00
2018,05,23,12,36,21.10
2018,05,23,12,37,21.20
2018,05,23,12,38,21.30
2018,05,23,12,39,21.40
2018,05,23,12,40,21.40
2018,05,23,12,41,21.50
2018,05,23,12,42,21.60
2018,05,23,12,43,21.60
2018,05,23,12,44,21.60
2018,05,23,12,45,21.50
2018,05,23,12,46,21.40
2018,05,23,12,47,21.30
2018,05,23,12,48,21.30
2018,05,23,12,49,21.40
2018,05,23,12,50,21.50
2018,05,23,12,51,21.60
2018,05,23,12,52,21.70
2018,05,23,12,53,21.70
2018,05,23,12,54,21.60
2018,05,23,12,55,21.60
2018,05,23,12,56,21.50
2018,05,23,12,57,21.40
2018,05,23,12,58,21.20
2018,05,23,12,59,21.10
2018,05,23,13,00,21.00
2018,05,23,13,01,20.90
2018,05,23,13,02,20.90
2018,05,23,13,03,20.80
2018,05,23,13,04,20.80
2018,05,23,13,05,20.70
2018,05,23,13,06,20.70
2018,05,23,13,07,20.80
2018,05,23,13,08,20.90
2018,05,23,13,09,21.00
2018,05,23,13,10,21.10
2018,05,23,13,11,21.10
2018,05,23,13,12,21.20
2018,05,23,13,13,21.40
2018,05,23,13,14,21.50
2018,05,23,13,15,21.60
2018,05,23,13,16,21.60
2018,05,23,13,17,21.60
2018,05,23,13,18,21.60
2018,05,23,13,19,21.60
2018,05,23,13,20,21.60
2018,05,23,13,21,21.60
2018,05,23,13,22,21.60
2018,05,23,13,23,21.60
2018,05,23,13,24,21.60
2018,05,23,13,25,21.70
2018,05,23,13,26,21.80
2018,05,23,13,27,21.80
2018,05,23,13,28,21.90
2018,05,23,13,29,22.00
2018,05,23,13,30,22.00
2018,05,23,13,31,22.00
2018,05,23,13,32,21.90
2018,05,23,13,33,21.90
2018,05,23,13,34,22.00
2018,05,23,13,35,22.10
2018,05,23,13,36,22.30
2018,05,23,13,37,22.30
2018,05,23,13,38,22.30
2018,05,23,13,39,22.30
2018,05,23,13,40,22.30
2018,05,23,13,41,22.40
2018,05,23,13,42,22.40
2018,05,23,13,43,22.30
2018,05,23,13,44,22.30
2018,05,23,13,45,22.30
2018,05,23,13,46,22.30
2018,05,23,13,47,22.40
2018,05,23,13,48,22.30
2018,05,23,13,49,22.30
2018,05,23,13,50,22.30
2018,05,23,13,51,22.30
2018,05,23,13,52,22.30
2018,05,23,13,53,22.30
2018,05,23,13,54,22.20
2018,05,23,13,55,22.20
2018,05,23,13,56,22.30
2018,05,23,13,57,22.30
2018,05,23,13,58,22.20
2018,05,23,13,59,22.20
2018,05,23,14,00,22.20
2018,05,23,14,01,22.30
2018,05,23,14,02,22.30
2018,05,23,14,03,22.40
2018,05,23,14,04,22.50
2018,05,23,14,05,22.50
2018,05,23,14,06,22.70
2018,05,23,14,07,22.80
2018,05,23,14,08,22.80
2018,05,23,14,09,22.80
2018,05,23,14,10,22.90
2018,05,23,14,11,23.00
2018,05,23,14,12,23.00
2018,05,23,14,13,23.00
2018,05,23,14,14,23.10
2018,05,23,14,15,23.10
2018,05,23,14,16,23.10
2018,05,23,14,17,23.20
2018,05,23,14,18,23.30
2018,05,23,14,19,23.30
2018,05,23,14,20,23.40
2018,05,23,14,21,23.50
2018,05,23,14,22,23.60
2018,05,23,14,23,23.70
2018,05,23,14,24,23.70
2018,05,23,14,25,23.80
2018,05,23,14,26,23.80
2018,05,23,14,27,23.80
2018,05,23,14,28,23.80
2018,05,23,14,29,23.80
2018,05,23,14,30,23.80
2018,05,23,14,31,23.80
2018,05,23,14,32,23.80
2018,05,23,14,33,23.70
2018,05,23,14,34,23.60
2018,05,23,14,35,23.40
2018,05,23,14,36,23.30
2018,05,23,14,37,23.20
2018,05,23,14,38,23.10
2018,05,23,14,39,23.10
2018,05,23,14,40,23.10
2018,05,23,14,41,23.20
2018,05,23,14,42,23.30
2018,05,23,14,43,23.40
2018,05,23,14,44,23.50
2018,05,23,14,45,23.60
2018,05,23,14,46,23.70
2018,05,23,14,47,23.70
2018,05,23,14,48,23.80
2018,05,23,14,49,23.80
2018,05,23,14,50,23.80
2018,05,23,14,51,23.80
2018,05,23,14,52,23.80
2018,05,23,14,53,23.70
2018,05,23,14,54,23.70
2018,05,23,14,55,23.60
2018,05,23,14,56,23.60
2018,05,23,14,57,23.70
2018,05,23,14,58,23.70
2018,05,23,14,59,23.70
2018,05,23,15,00,23.70
2018,05,23,15,01,23.80
2018,05,23,15,02,23.80
2018,05,23,15,03,23.70
2018,05,23,15,04,23.80
2018,05,23,15,05,23.80
2018,05,23,15,06,23.90
2018,05,23,15,07,24.00
2018,05,23,15,08,24.10
2018,05,23,15,09,24.20
2018,05,23,15,10,24.20
2018,05,23,15,11,24.20
2018,05,23,15,12,24.20
2018,05,23,15,13,24.20
2018,05,23,15,14,24.10
2018,05,23,15,15,24.10
2018,05,23,15,16,24.10
2018,05,23,15,17,24.10
2018,05,23,15,18,24.10
2018,05,23,15,19,24.00
2018,05,23,15,20,24.00
2018,05,23,15,21,23.90
2018,05,23,15,22,23.80
2018,05,23,15,23,23.80
2018,05,23,15,24,23.80
2018,05,23,15,25,23.80
2018,05,23,15,26,23.90
2018,05,23,15,27,24.00
2018,05,23,15,28,24.10
2018,05,23,15,29,24.20
2018,05,23,15,30,24.20
2018,05,23,15,31,24.30
2018,05,23,15,32,24.30
2018,05,23,15,33,24.40
2018,05,23,15,34,24.50
2018,05,23,15,35,24.60
2018,05,23,15,36,24.70
2018,05,23,15,37,24.70
2018,05,23,15,38,24.70
2018,05,23,15,39,24.70
2018,05,23,15,40,24.80
2018,05,23,15,41,24.90
2018,05,23,15,42,25.00
2018,05,23,15,43,25.00
2018,05,23,15,44,25.10
2018,05,23,15,45,25.10
2018,05,23,15,46,25.10
2018,05,23,15,47,25.10
2018,05,23,15,48,25.10
2018,05,23,15,49,25.10
2018,05,23,15,50,25.10
2018,05,23,15,51,25.10
2018,05,23,15,52,25.10
2018,05,23,15,53,25.10
2018,05,23,15,54,25.00
2018,05,23,15,55,25.00
2018,05,23,15,56,25.00
2018,05,23,15,57,24.90
2018,05,23,15,58,24.90
2018,05,23,15,59,24.90
2018,05,23,16,00,24.90
2018,05,23,16,01,25.00
2018,05,23,16,02,25.00
2018,05,23,16,03,25.10
2018,05,23,16,04,25.10
2018,05,23,16,05,25.20
2018,05,23,16,06,25.20
2018,05,23,16,07,25.20
2018,05,23,16,08,25.30
2018,05,23,16,09,25.30
2018,05,23,16,10,25.40
2018,05,23,16,11,25.50
2018,05,23,16,12,25.60
2018,05,23,16,13,25.70
2018,05,23,16,14,25.70
2018,05,23,16,15,25.80
2018,05,23,16,16,25.80
2018,05,23,16,17,25.80
2018,05,23,16,18,25.80
2018,05,23,16,19,25.80
2018,05,23,16,20,25.80
2018,05,23,16,21,25.80
2018,05,23,16,22,25.80
2018,05,23,16,23,25.80
2018,05,23,16,24,25.80
2018,05,23,16,25,25.80
2018,05,23,16,26,25.80
2018,05,23,16,27,25.90
2018,05,23,16,28,25.90
2018,05,23,16,29,25.90
2018,05,23,16,30,25.80
2018,05,23,16,31,25.80
2018,05,23,16,32,25.80
2018,05,23,16,33,25.80
2018,05,23,16,34,25.80
2018,05,23,16,35,25.80
2018,05,23,16,36,25.80
2018,05,23,16,37,25.80
2018,05,23,16,38,25.80
2018,05,23,16,39,25.80
2018,05,23,16,40,25.80
2018,05,23,16,41,25.90
2018,05,23,16,42,25.90
2018,05,23,16,43,25.80
2018,05,23,16,44,25.80
2018,05,23,16,45,25.70
2018,05,23,16,46,25.70
2018,05,23,16,47,25.70
2018,05,23,16,48,25.80
2018,05,23,16,49,25.80
2018,05,23,16,50,25.90
2018,05,23,16,51,25.90
2018,05,23,16,52,26.00
2018,05,23,16,53,26.10
2018,05,23,16,54,26.20
2018,05,23,16,55,26.40
2018,05,23,16,56,26.40
2018,05,23,16,57,26.50
2018,05,23,16,58,26.60
2018,05,23,16,59,26.60
2018,05,23,17,00,26.60
2018,05,23,17,01,26.60
2018,05,23,17,02,26.60
2018,05,23,17,03,26.60
2018,05,23,17,04,26.60
2018,05,23,17,05,26.60
2018,05,23,17,06,26.50
2018,05,23,17,07,26.40
2018,05,23,17,08,26.40
2018,05,23,17,09,26.30
2018,05,23,17,10,26.30
2018,05,23,17,11,26.30
2018,05,23,17,12,26.30
2018,05,23,17,13,26.30
2018,05,23,17,14,26.30
2018,05,23,17,15,26.40
2018,05,23,17,16,26.40
2018,05,23,17,17,26.40
2018,05,23,17,18,26.50
2018,05,23,17,19,26.50